Regional Weather Roundup
Issued by NWS Albany, NY

Home | Current Version | Previous Version | Text Only | Print | Product List | Glossary On
Versions: 1 2 3 4 5 6 7 8 9 10 11 12 13 14 15 16 17 18 19 20 21 22 23 24 25 26 27 28 29 30 31 32 33 34 35 36 37 38 39 40 41 42 43 44 45 46 47 48 49 50
000
ASUS41 KALY 181110
RWRALY

NEW YORK STATE HOURLY WEATHER ROUNDUP
NATIONAL WEATHER SERVICE ALBANY NY
700 AM EDT THU SEP 18 2014

NOTE: "FAIR" INDICATES FEW OR NO CLOUDS BELOW 12,000 FEET WITH NO
SIGNIFICANT WEATHER AND/OR NO OBSTRUCTIONS TO VISIBILITY.

NYZ032-033-038>043-046>054-057>066-NYZ062>081-181200-
EAST


CITY           SKY/WX    TMP DP  RH WIND       PRES   REMARKS
ALBANY         PTCLDY    45  42  89 CALM      30.00R
GLENS FALLS    CLOUDY    46  44  93 CALM      29.99R
POUGHKEEPSIE   CLEAR     43  41  93 CALM      30.00R
NEWBURGH       CLEAR     45  45 100 CALM      30.01R
MONTGOMERY     CLEAR     40  38  93 CALM      30.01R
WHITE PLAINS   CLEAR     51  47  86 NW6       29.99R
ISLIP          PTCLDY    53  50  89 CALM      29.97R
NEW YORK CITY  PTCLDY    61  50  67 NW5       29.98R
CENTRAL PARK   CLEAR     57  49  74 CALM      30.02R
$$

NYZ005>009-017-018-044>046-055-056-181200-
CENTRAL


CITY           SKY/WX    TMP DP  RH WIND       PRES   REMARKS
FULTON         CLOUDY    52  48  86 CALM      30.00R
SYRACUSE       PTCLDY    49  45  86 CALM      30.00R
ROME           CLOUDY    45  43  93 CALM      30.02R
ELMIRA         FOG       46  46 100 W3        30.04R VSB 1/2
BINGHAMTON     CLEAR     45  43  93 W5        30.02R
MONTICELLO     CLEAR     41  41 100 N3        30.03R
$$

NYZ026>034-041>043-181200-
NORTH


CITY           SKY/WX    TMP DP  RH WIND       PRES   REMARKS
WATERTOWN      CLOUDY    53  44  71 N12       30.03R
FORT DRUM      NOT AVBL
MASSENA        CLOUDY    46  42  86 N12       30.06R
SARANAC LAKE   CLOUDY    48  46  93 VRB5      29.98R
PLATTSBURGH    LGT RAIN  51  49  92 N12       29.99R
$$

NYZ001>004-010>016-019>021-181200-
WEST


CITY           SKY/WX    TMP DP  RH WIND       PRES   REMARKS
NIAGARA FALLS  PTCLDY    46  43  89 CALM      30.02R
BUFFALO        PTCLDY    50  47  89 CALM      30.03R
DUNKIRK        CLEAR     51  48  89 SW6       30.03R
JAMESTOWN      CLOUDY    43  41  93 CALM      30.04R VSB 1/4
WELLSVILLE     FOG       42  40  92 CALM      30.05R VSB 1/2
ROCHESTER      MOCLDY    47  45  93 SW6       30.02R FOG
PENN YAN       CLEAR     51  50  96 SW6       30.02R
$$

             KEY
       WCI = WIND CHILL INDEX
       VSB = VISIBILITY
       HX  = HEAT INDEX
$$



USA.gov is the U.S. government's official web portal to all federal, state and local government web resources and services.